Weather Roundup
Issued by NWS

Home | Current Version | Previous Version | Graphics & Text | Print | Product List | Glossary Off
Versions: 1 2 3 4 5 6 7 8 9 10 11 12 13 14 15 16 17 18 19 20 21 22 23 24 25 26 27 28 29 30 31 32 33 34 35 36 37 38 39 40 41 42 43 44 45 46 47 48 49 50

960
NZUS93 KARX 261559
HRRWXR

CURRENT HOURLY OBSERVATIONS ACROSS
MUCH OF THE UPPER MISSISSIPPI VALLEY
NATIONAL WEATHER SERVICE LA CROSSE WI
1100 AM CDT SUN MAR 26 2017


...SOUTHEAST MINNESOTA...


CITY           SKY/WX    TMP DP  RH WIND       PRES   REMARKS
ROCHESTER      CLOUDY    36  36 100 N8        29.90R FOG     WCI  30
ROCHESTER/MAYO CLOUDY    37  37 100 N3        29.90S
WINONA         CLOUDY    37  36  93 NE3       29.92S
AUSTIN         CLOUDY    37  36  93 NE7       29.89F FOG     WCI  32
ALBERT LEA     CLOUDY    37  37 100 N8        29.90S FOG     WCI  31
DODGE CENTER   FOG       36  36 100 N8        29.90S VSB 1   WCI  29
PRESTON        CLOUDY    36  35  96 N3        29.89S FOG
OWATONNA       CLOUDY    37  36  93 N7        29.91F FOG     WCI  32
FARIBAULT      CLOUDY    37  36  93 N8        29.93S FOG     WCI  31
$$

...ELSEWHERE IN MINNESOTA...


CITY           SKY/WX    TMP DP  RH WIND       PRES   REMARKS
MINNEAPOLIS    CLOUDY    39  34  82 NE6       29.94S WCI  35
INTNL FALLS    CLOUDY    37  31  78 CALM      29.98S
DULUTH         LGT RAIN  33  32  96 E7        29.96S WCI  27
RED WING       CLOUDY    37  36  93 CALM      29.92F FOG
REDWOOD FALLS  CLOUDY    38  35  89 NE6       29.94S WCI  33
MANKATO        CLOUDY    38  36  92 NE8       29.93S WCI  32
WORTHINGTON    MIX PCPN  37  36  96 N8        29.93R WCI  31
FAIRMONT       CLOUDY    38  37  97 N12       29.92S FOG     WCI  30
$$

...SOUTHWEST WISCONSIN...


CITY           SKY/WX    TMP DP  RH WIND       PRES   REMARKS
LA CROSSE      CLOUDY    41  38  89 CALM      29.90S FOG
PRAIRIE DU CHI LGT RAIN  40  39  97 CALM      29.86F
BOSCOBEL       LGT RAIN  42  40  92 VRB3      29.87F FOG
LONE ROCK      LGT RAIN  42  40  92 NE3       29.87F FOG
PLATTEVILLE    CLOUDY    44  44 100 NE8       29.84F VSB 1/2
FORT MC COY    CLOUDY    37  37 100 E8        29.90S FOG     WCI  30
MAUSTON-NEW LI FOG       37  37  99 NE5       29.88S VSB 1   WCI  34
VIROQUA        CLOUDY    38  38 100 NE6       29.86S VSB 1/4 WCI  33
WIS DELLS      FOG       37  37  98 NE8       29.87F VSB 1/2 WCI  31
$$

...ELSEWHERE IN WISCONSIN...


CITY           SKY/WX    TMP DP  RH WIND       PRES   REMARKS
MILWAUKEE      LGT RAIN  41  39  93 NE7       29.87F VSB 1/4
MADISON        LGT RAIN  42  42 100 NE5       29.86S FOG
GREEN BAY      RAIN      37  37 100 NE12      29.93F FOG     WCI  29
EAU CLAIRE     NOT AVBL
BLACK RVR FLS  CLOUDY    37  37 100 E6        29.91S WCI  33
MEDFORD        DRIZZLE   34  33  96 E8        29.91S WCI  28
WAUSAU         LGT RAIN  34  33  96 E7        29.91F FOG     WCI  28
WIS RAPIDS     CLOUDY    36  36 100 E9        29.92S FOG     WCI  29
MARSHFIELD     MIX PCPN  35  33  92 E10       29.89F FOG     WCI  27
RICE LAKE      CLOUDY    36  35  97 CALM      29.95F
$$

...NORTHEAST IOWA...


CITY           SKY/WX    TMP DP  RH WIND       PRES   REMARKS
WATERLOO       CLOUDY    41  40  96 N9        29.87R FOG
DUBUQUE        FOG       44  44 100 NE10      29.83S VSB 1/4
DECORAH        FOG       37  37 100 VRB5      29.86S VSB 1/4 WCI  34
MASON CITY     CLOUDY    40  38  93 N9        29.90S WCI  34
CHARLES CITY   CLOUDY    39  39 100 N10       29.88S FOG     WCI  32
OELWEIN        CLOUDY    41  41 100 NE7       29.86R FOG
$$

...ELSEWHERE IN IOWA...


CITY           SKY/WX    TMP DP  RH WIND       PRES   REMARKS
DES MOINES     CLOUDY    42  41  96 NW7       29.89R FOG
IOWA CITY      CLOUDY    49  47  93 N6        29.84S FOG
FORT DODGE     CLOUDY    39  37  93 N5        29.90S
MARSHALLTOWN   CLOUDY    42  41  96 N10       29.86S FOG
CEDAR RAPIDS   FOG       45  45 100 N7        29.82S VSB 1/4
$$

...NORTHERN ILLINOIS...


CITY           SKY/WX    TMP DP  RH WIND       PRES   REMARKS
CHICAGO-OHARE  RAIN      56  53  90 S7        29.83F FOG
CHICAGO-MIDWAY CLOUDY    58  56  93 S9        29.84F
MOLINE         CLOUDY    56  52  86 SW8       29.81S
ROCKFORD       CLOUDY    52  49  89 NE5       29.85F FOG
PEORIA         LGT RAIN  53  52  96 SW12      29.85S FOG
$$

NOTE: "FAIR" INDICATES FEW OR NO CLOUDS BELOW 12,000 FEET WITH NO
SIGNIFICANT WEATHER AND/OR OBSTRUCTIONS TO VISIBILITY. WIND
SPEEDS ARE IN MILES-PER-HOUR.




USA.gov is the U.S. government's official web portal to all federal, state and local government web resources and services.